SDG090 EGJJ-LICC

Flight info

Callsign SDG090
Flight time N/A
Altitude 35000
Route DIN CAR PAL
Aircraft A321/M-L/C

Departure

Time 2026-05-04 16:26
Airport Jersey Airport (EGJJ)

Arrival

Time N/A
Airport Catania-Fontanarossa Airport (LICC)
Time Latitude Longitude Altitude Speed Heading
2026-05-04 16:15 49.20564 -2.19640 271 ft 0 kts 161°
2026-05-04 16:20 49.20596 -2.19657 271 ft 3 kts 161°
2026-05-04 16:20 49.20638 -2.19643 271 ft 3 kts 241°
2026-05-04 16:21 49.20639 -2.19640 271 ft 0 kts 245°
2026-05-04 16:23 49.20605 -2.19795 268 ft 12 kts 263°
2026-05-04 16:24 49.20554 -2.20193 267 ft 12 kts 287°
2026-05-04 16:25 49.20609 -2.20466 259 ft 11 kts 285°
2026-05-04 16:26 49.20768 -2.19992 268 ft 103 kts 83°
2026-05-04 16:26 49.21144 -2.15173 1715 ft 159 kts 79°
2026-05-04 16:27 49.20524 -2.11767 2126 ft 202 kts 143°
2026-05-04 16:28 49.16372 -2.08630 2925 ft 246 kts 154°
2026-05-04 16:28 49.11399 -2.05107 4137 ft 272 kts 160°
2026-05-04 16:29 49.03746 -2.05584 6079 ft 279 kts 185°
2026-05-04 16:30 48.97902 -2.06020 7520 ft 284 kts 181°
2026-05-04 16:31 48.93961 -2.06238 8476 ft 287 kts 181°
2026-05-04 16:31 48.87918 -2.06578 9839 ft 292 kts 181°
2026-05-04 16:32 48.81655 -2.06928 10618 ft 314 kts 181°
2026-05-04 16:33 48.77191 -2.07176 11013 ft 328 kts 181°
2026-05-04 16:33 48.72613 -2.07435 11671 ft 329 kts 181°
2026-05-04 16:34 48.68064 -2.07693 12339 ft 329 kts 181°
2026-05-04 16:34 48.65767 -2.07823 12669 ft 329 kts 181°
2026-05-04 16:35 48.58950 -2.07551 13605 ft 329 kts 159°
2026-05-04 16:35 48.53771 -2.00900 14444 ft 332 kts 134°
2026-05-04 16:36 48.52174 -1.98409 14702 ft 333 kts 135°
2026-05-04 16:36 48.48923 -1.93396 15209 ft 335 kts 135°
2026-05-04 16:37 48.45649 -1.88375 15694 ft 337 kts 135°
2026-05-04 16:37 48.44018 -1.85879 15921 ft 338 kts 135°
2026-05-04 16:37 48.40704 -1.80815 16367 ft 340 kts 135°
2026-05-04 16:38 48.37386 -1.75760 16795 ft 341 kts 135°
2026-05-04 16:39 48.32379 -1.68140 17397 ft 344 kts 135°
2026-05-04 16:39 48.29010 -1.63023 17774 ft 345 kts 135°
2026-05-04 16:40 48.25639 -1.57919 18124 ft 346 kts 135°
2026-05-04 16:40 48.22252 -1.52804 18419 ft 346 kts 135°
2026-05-04 16:41 48.18849 -1.47670 18684 ft 348 kts 135°
2026-05-04 16:41 48.13724 -1.39955 19127 ft 350 kts 135°
2026-05-04 16:42 48.08575 -1.32242 19541 ft 352 kts 136°
2026-05-04 16:43 48.05121 -1.27077 19820 ft 352 kts 136°
2026-05-04 16:43 48.01653 -1.21895 20038 ft 353 kts 136°
2026-05-04 16:43 47.99918 -1.19306 20166 ft 353 kts 136°
2026-05-04 16:44 47.92961 -1.08949 20650 ft 355 kts 136°
2026-05-04 16:45 47.89440 -1.03725 20911 ft 356 kts 136°
2026-05-04 16:46 47.84180 -0.95945 21286 ft 357 kts 137°
2026-05-04 16:46 47.80650 -0.90737 21524 ft 357 kts 137°
2026-05-04 16:47 47.77161 -0.85599 21882 ft 351 kts 137°
2026-05-04 16:47 47.73746 -0.80577 22576 ft 339 kts 137°
2026-05-04 16:48 47.68855 -0.73406 23620 ft 323 kts 137°
2026-05-04 16:48 47.67271 -0.71088 23992 ft 318 kts 137°
2026-05-04 16:49 47.64187 -0.66578 24726 ft 308 kts 137°
2026-05-04 16:49 47.61134 -0.62125 25175 ft 310 kts 137°
2026-05-04 16:50 47.58037 -0.57616 25638 ft 312 kts 138°
2026-05-04 16:50 47.54958 -0.53142 26024 ft 314 kts 138°
2026-05-04 16:51 47.51831 -0.48604 26355 ft 315 kts 138°
2026-05-04 16:51 47.50252 -0.46318 26515 ft 316 kts 138°
2026-05-04 16:51 47.47104 -0.41761 26821 ft 318 kts 138°
2026-05-04 16:52 47.43951 -0.37208 27119 ft 320 kts 138°
2026-05-04 16:52 47.42342 -0.34886 27266 ft 321 kts 139°
2026-05-04 16:53 47.39155 -0.30296 27555 ft 322 kts 139°
2026-05-04 16:53 47.34341 -0.23374 27956 ft 324 kts 139°
2026-05-04 16:54 47.32735 -0.21070 28082 ft 324 kts 139°
2026-05-04 16:55 47.26226 -0.11756 28513 ft 327 kts 139°
2026-05-04 16:55 47.22950 -0.07080 28723 ft 329 kts 139°
2026-05-04 16:56 47.19669 -0.02404 28930 ft 330 kts 139°
2026-05-04 16:56 47.14718 0.04636 29211 ft 331 kts 139°
2026-05-04 16:57 47.13058 0.06994 29385 ft 328 kts 140°
2026-05-04 16:57 47.09799 0.11614 29542 ft 330 kts 140°
2026-05-04 16:58 47.03085 0.21101 29619 ft 341 kts 139°
2026-05-04 17:00 46.92715 0.35696 29854 ft 348 kts 140°
2026-05-04 17:01 46.83901 0.48032 30226 ft 345 kts 140°
2026-05-04 17:01 46.80446 0.52854 30417 ft 345 kts 140°
2026-05-04 17:02 46.76968 0.57692 30446 ft 350 kts 140°
2026-05-04 17:02 46.73431 0.62608 30565 ft 353 kts 140°
2026-05-04 17:03 46.71646 0.65087 30655 ft 353 kts 140°
2026-05-04 17:03 46.66323 0.72460 30819 ft 354 kts 140°
2026-05-04 17:04 46.59186 0.82315 30992 ft 355 kts 140°
2026-05-04 17:05 46.55634 0.87210 31293 ft 348 kts 141°
2026-05-04 17:05 46.52090 0.92077 31259 ft 354 kts 141°
2026-05-04 17:06 46.46689 0.99478 31181 ft 360 kts 141°
2026-05-04 17:07 46.41781 1.06187 31042 ft 367 kts 141°
2026-05-04 17:07 46.37432 1.12115 30890 ft 372 kts 141°
2026-05-04 17:08 46.31801 1.19783 30819 ft 372 kts 141°
2026-05-04 17:09 46.28035 1.24896 30863 ft 370 kts 141°
2026-05-04 17:09 46.24316 1.29934 30887 ft 370 kts 141°
2026-05-04 17:10 46.20587 1.34979 31182 ft 360 kts 141°
2026-05-04 17:10 46.15114 1.42358 31313 ft 361 kts 142°
2026-05-04 17:11 46.11423 1.47318 31249 ft 365 kts 142°
2026-05-04 17:11 46.07698 1.52314 31118 ft 370 kts 142°
2026-05-04 17:12 46.05801 1.54855 31047 ft 372 kts 142°
2026-05-04 17:12 46.01969 1.59976 31082 ft 385 kts 142°
2026-05-04 17:13 45.95945 1.68013 31374 ft 402 kts 142°
2026-05-04 17:14 45.89690 1.76338 31726 ft 416 kts 142°
2026-05-04 17:14 45.87574 1.79149 31846 ft 421 kts 142°
2026-05-04 17:14 45.83234 1.84900 32080 ft 430 kts 142°
2026-05-04 17:15 45.81007 1.87846 32195 ft 434 kts 142°
2026-05-04 17:15 45.76545 1.93742 32406 ft 442 kts 142°
2026-05-04 17:16 45.71996 1.99739 32640 ft 446 kts 142°
2026-05-04 17:16 45.65183 2.08702 33185 ft 446 kts 142°
2026-05-04 17:17 45.62902 2.11696 33378 ft 445 kts 142°
2026-05-04 17:17 45.56069 2.20639 34001 ft 444 kts 143°
2026-05-04 17:18 45.53800 2.23599 34132 ft 446 kts 143°
2026-05-04 17:18 45.49197 2.29592 34351 ft 450 kts 143°
2026-05-04 17:19 45.44614 2.35552 34747 ft 447 kts 143°
2026-05-04 17:19 45.40037 2.41494 34959 ft 443 kts 143°
2026-05-04 17:20 45.35509 2.47353 34983 ft 442 kts 143°
2026-05-04 17:20 45.28694 2.56145 34954 ft 442 kts 143°
2026-05-04 17:21 45.19580 2.67858 34941 ft 442 kts 144°
2026-05-04 17:22 45.15040 2.73675 34879 ft 441 kts 144°
2026-05-04 17:23 45.05928 2.85307 34820 ft 442 kts 144°
2026-05-04 17:24 45.00389 2.92353 34867 ft 443 kts 144°
2026-05-04 17:25 44.91221 3.03978 34954 ft 443 kts 144°
2026-05-04 17:26 44.82027 3.15582 34948 ft 444 kts 144°
2026-05-04 17:27 44.70531 3.30017 34960 ft 445 kts 144°
2026-05-04 17:28 44.61266 3.41595 34953 ft 447 kts 145°
2026-05-04 17:29 44.47293 3.58945 34955 ft 450 kts 145°
2026-05-04 17:31 44.35563 3.73421 34957 ft 451 kts 146°
2026-05-04 17:32 44.23769 3.87902 34922 ft 454 kts 146°
2026-05-04 17:33 44.14283 3.99494 34880 ft 455 kts 146°
2026-05-04 17:34 44.07124 4.08207 35131 ft 455 kts 146°
2026-05-04 17:34 44.04753 4.11087 35273 ft 455 kts 146°
2026-05-04 17:35 43.92832 4.25515 35038 ft 456 kts 146°
2026-05-04 17:36 43.88028 4.31307 34967 ft 456 kts 146°
2026-05-04 17:36 43.83266 4.37036 34946 ft 456 kts 146°
2026-05-04 17:37 43.78480 4.42783 34932 ft 457 kts 146°
2026-05-04 17:37 43.73684 4.48527 34931 ft 457 kts 146°
2026-05-04 17:38 43.68895 4.54250 34933 ft 458 kts 146°
2026-05-04 17:38 43.64064 4.60012 34932 ft 458 kts 146°
2026-05-04 17:39 43.56808 4.68642 34936 ft 458 kts 147°
2026-05-04 17:39 43.51990 4.74359 34942 ft 459 kts 147°
2026-05-04 17:40 43.47153 4.80084 34948 ft 460 kts 147°
2026-05-04 17:40 43.42293 4.85823 34952 ft 461 kts 147°
2026-05-04 17:41 43.37454 4.91523 34953 ft 461 kts 147°
2026-05-04 17:41 43.32574 4.97257 34955 ft 462 kts 147°
2026-05-04 17:42 43.27678 5.02998 34957 ft 462 kts 147°
2026-05-04 17:42 43.22807 5.08698 34957 ft 463 kts 147°
2026-05-04 17:43 43.17902 5.14426 34957 ft 464 kts 147°
2026-05-04 17:43 43.12970 5.20173 34957 ft 465 kts 147°
2026-05-04 17:44 43.08058 5.25885 34958 ft 465 kts 147°
2026-05-04 17:44 43.03135 5.31597 34959 ft 465 kts 147°
2026-05-04 17:45 42.98193 5.37318 34960 ft 466 kts 147°
2026-05-04 17:45 42.93266 5.43009 34962 ft 466 kts 147°
2026-05-04 17:46 42.88329 5.48701 34965 ft 467 kts 147°
2026-05-04 17:46 42.83353 5.54423 34966 ft 467 kts 147°
2026-05-04 17:47 42.78373 5.60137 34968 ft 468 kts 147°
2026-05-04 17:47 42.73403 5.65829 34969 ft 468 kts 148°
2026-05-04 17:48 42.68418 5.71527 34971 ft 468 kts 148°
2026-05-04 17:48 42.63434 5.77209 34973 ft 469 kts 148°
2026-05-04 17:49 42.58454 5.82875 34974 ft 470 kts 148°
2026-05-04 17:49 42.53442 5.88563 34975 ft 470 kts 148°
2026-05-04 17:50 42.48437 5.94233 34976 ft 471 kts 148°
2026-05-04 17:50 42.43414 5.99911 34976 ft 471 kts 148°
2026-05-04 17:51 42.38376 6.05596 34977 ft 472 kts 148°
2026-05-04 17:51 42.33322 6.11287 34977 ft 473 kts 148°
2026-05-04 17:52 42.28270 6.16962 34977 ft 473 kts 148°
2026-05-04 17:52 42.23242 6.22598 34985 ft 473 kts 148°
2026-05-04 17:53 42.18164 6.28276 34995 ft 473 kts 148°
2026-05-04 17:53 42.13101 6.33927 35001 ft 473 kts 148°
2026-05-04 17:54 42.08012 6.39594 35002 ft 473 kts 148°
2026-05-04 17:54 42.02954 6.45211 35001 ft 474 kts 148°
2026-05-04 17:55 41.97874 6.50848 34998 ft 474 kts 148°
2026-05-04 17:55 41.92791 6.56473 34994 ft 475 kts 148°
2026-05-04 17:56 41.87701 6.62094 34994 ft 475 kts 148°
2026-05-04 17:56 41.82583 6.67733 34994 ft 474 kts 148°
2026-05-04 17:57 41.77484 6.73338 34996 ft 474 kts 148°
2026-05-04 17:57 41.72387 6.78929 34996 ft 474 kts 148°
2026-05-04 17:58 41.67287 6.84513 34996 ft 475 kts 148°
2026-05-04 17:58 41.62190 6.90081 34996 ft 475 kts 148°
2026-05-04 17:59 41.57081 6.95650 34997 ft 476 kts 148°
2026-05-04 18:00 41.49364 7.04040 34995 ft 476 kts 148°
2026-05-04 18:00 41.44236 7.09600 34994 ft 477 kts 148°
2026-05-04 18:01 41.39108 7.15150 34994 ft 477 kts 148°
2026-05-04 18:01 41.33938 7.20732 34995 ft 477 kts 148°
2026-05-04 18:02 41.26212 7.29050 34997 ft 478 kts 148°
2026-05-04 18:02 41.21063 7.34583 34999 ft 478 kts 148°
2026-05-04 18:03 41.15900 7.40112 34999 ft 478 kts 148°
2026-05-04 18:03 41.10731 7.45636 35000 ft 478 kts 148°
2026-05-04 18:04 41.05538 7.51174 35001 ft 479 kts 148°
2026-05-04 18:05 40.97749 7.59455 35002 ft 479 kts 148°
2026-05-04 18:05 40.92542 7.64981 35003 ft 479 kts 148°
2026-05-04 18:06 40.84787 7.73196 35004 ft 478 kts 148°
2026-05-04 18:06 40.79594 7.78678 35010 ft 477 kts 148°
2026-05-04 18:07 40.74438 7.84111 35012 ft 475 kts 148°
2026-05-04 18:07 40.69283 7.89534 35010 ft 474 kts 148°
2026-05-04 18:08 40.64111 7.94963 35009 ft 475 kts 148°
2026-05-04 18:08 40.58941 8.00378 35008 ft 475 kts 148°
2026-05-04 18:09 40.48593 8.11186 35006 ft 476 kts 147°
2026-05-04 18:10 40.43397 8.16602 35008 ft 477 kts 147°
2026-05-04 18:10 40.38205 8.22006 35009 ft 478 kts 147°
2026-05-04 18:11 40.33001 8.27408 35010 ft 478 kts 147°
2026-05-04 18:11 40.27784 8.32808 35010 ft 477 kts 147°
2026-05-04 18:12 40.22575 8.38188 35010 ft 477 kts 147°
2026-05-04 18:12 40.17370 8.43555 35011 ft 477 kts 147°
2026-05-04 18:13 40.12161 8.48914 35012 ft 477 kts 147°
2026-05-04 18:14 40.04330 8.56949 35003 ft 478 kts 147°
2026-05-04 18:14 39.99123 8.62281 34994 ft 478 kts 147°
2026-05-04 18:15 39.88638 8.72984 34984 ft 478 kts 147°
2026-05-04 18:16 39.83406 8.78310 35007 ft 478 kts 147°
2026-05-04 18:16 39.78179 8.83621 35041 ft 479 kts 147°
2026-05-04 18:17 39.70281 8.91623 35046 ft 480 kts 147°
2026-05-04 18:18 39.62371 8.99612 35049 ft 481 kts 147°
2026-05-04 18:18 39.57111 9.04913 35048 ft 481 kts 147°
2026-05-04 18:19 39.49154 9.12909 35060 ft 482 kts 147°
2026-05-04 18:19 39.43847 9.18227 35063 ft 483 kts 147°
2026-05-04 18:20 39.38554 9.23523 35057 ft 483 kts 147°
2026-05-04 18:20 39.33252 9.28819 35050 ft 482 kts 147°
2026-05-04 18:21 39.27933 9.34126 35043 ft 483 kts 147°
2026-05-04 18:21 39.22620 9.39416 35039 ft 483 kts 147°
2026-05-04 18:22 39.17340 9.44796 35037 ft 486 kts 143°
2026-05-04 18:22 39.12700 9.51189 35036 ft 489 kts 131°
2026-05-04 18:23 39.09116 9.58629 35034 ft 494 kts 118°
2026-05-04 18:23 39.06584 9.66867 35032 ft 496 kts 111°
2026-05-04 18:24 39.04327 9.75256 35033 ft 496 kts 111°
2026-05-04 18:24 39.02052 9.83611 35033 ft 496 kts 111°
2026-05-04 18:25 38.99754 9.91929 35033 ft 496 kts 112°
2026-05-04 18:25 38.97442 10.00245 35032 ft 496 kts 112°
2026-05-04 18:26 38.95110 10.08592 35032 ft 495 kts 111°
2026-05-04 18:26 38.92778 10.16900 35033 ft 495 kts 111°
2026-05-04 18:27 38.90433 10.25233 35031 ft 496 kts 111°
2026-05-04 18:27 38.88095 10.33523 35030 ft 496 kts 111°
2026-05-04 18:28 38.85748 10.41818 35032 ft 496 kts 111°
2026-05-04 18:28 38.83386 10.50134 35035 ft 496 kts 111°
2026-05-04 18:29 38.81029 10.58409 35036 ft 496 kts 111°
2026-05-04 18:29 38.78654 10.66721 35036 ft 496 kts 112°
2026-05-04 18:30 38.75088 10.79147 35037 ft 495 kts 112°
2026-05-04 18:31 38.72720 10.87365 35037 ft 495 kts 111°
2026-05-04 18:31 38.70332 10.95633 35041 ft 496 kts 111°
2026-05-04 18:32 38.67938 11.03895 35050 ft 496 kts 111°
2026-05-04 18:32 38.65536 11.12161 35059 ft 496 kts 111°
2026-05-04 18:33 38.63132 11.20404 35063 ft 495 kts 111°
2026-05-04 18:33 38.60726 11.28630 35067 ft 495 kts 111°
2026-05-04 18:34 38.58304 11.36881 35076 ft 495 kts 111°
2026-05-04 18:34 38.55880 11.45115 35084 ft 495 kts 111°
2026-05-04 18:35 38.53455 11.53331 35088 ft 495 kts 111°
2026-05-04 18:35 38.51030 11.61522 35089 ft 495 kts 111°
2026-05-04 18:36 38.48583 11.69756 35091 ft 495 kts 112°
2026-05-04 18:36 38.46137 11.77962 35094 ft 495 kts 112°
2026-05-04 18:37 38.43691 11.86149 35099 ft 494 kts 112°
2026-05-04 18:37 38.41249 11.94284 35105 ft 494 kts 112°
2026-05-04 18:38 38.38780 12.02494 35107 ft 493 kts 111°
2026-05-04 18:38 38.36324 12.10635 35110 ft 493 kts 111°
2026-05-04 18:39 38.33867 12.18746 35112 ft 493 kts 111°
2026-05-04 18:39 38.31391 12.26905 35114 ft 493 kts 111°
2026-05-04 18:40 38.28926 12.35009 35115 ft 493 kts 111°
2026-05-04 18:40 38.26443 12.43150 35117 ft 493 kts 111°
2026-05-04 18:41 38.23956 12.51277 35118 ft 494 kts 111°
2026-05-04 18:41 38.21460 12.59405 35120 ft 495 kts 111°
2026-05-04 18:42 38.18961 12.67525 35121 ft 495 kts 112°
2026-05-04 18:42 38.16438 12.75699 35120 ft 496 kts 112°
2026-05-04 18:42 38.15185 12.79748 34927 ft 496 kts 112°
2026-05-04 18:43 38.13913 12.83856 34725 ft 496 kts 112°
2026-05-04 18:43 38.12654 12.87913 34497 ft 497 kts 111°
2026-05-04 18:43 38.11382 12.92009 34246 ft 498 kts 111°
2026-05-04 18:43 38.10110 12.96093 33837 ft 498 kts 111°
2026-05-04 18:44 38.08847 13.00147 33245 ft 500 kts 111°
2026-05-04 18:44 38.08000 13.02863 32738 ft 501 kts 111°
2026-05-04 18:44 38.06283 13.08364 31754 ft 497 kts 111°
2026-05-04 18:44 38.05033 13.12362 31061 ft 494 kts 111°
2026-05-04 18:45 38.03763 13.16413 30375 ft 491 kts 111°
2026-05-04 18:45 38.02503 13.20426 29758 ft 485 kts 110°
2026-05-04 18:45 38.01262 13.24369 29027 ft 483 kts 110°
2026-05-04 18:45 38.00029 13.28290 28447 ft 484 kts 110°
2026-05-04 18:46 37.98775 13.32272 28309 ft 487 kts 110°
2026-05-04 18:46 37.97523 13.36248 28449 ft 488 kts 110°
2026-05-04 18:46 37.96272 13.40217 28661 ft 488 kts 110°
2026-05-04 18:46 37.95013 13.44203 28789 ft 485 kts 110°
2026-05-04 18:47 37.93768 13.48140 28557 ft 481 kts 110°
2026-05-04 18:47 37.92511 13.52111 27810 ft 486 kts 110°
2026-05-04 18:47 37.91249 13.56093 26750 ft 499 kts 110°
2026-05-04 18:47 37.89949 13.60188 25874 ft 505 kts 110°
2026-05-04 18:48 37.88663 13.64230 25506 ft 495 kts 110°
2026-05-04 18:48 37.87381 13.68250 25050 ft 479 kts 111°
2026-05-04 18:48 37.86164 13.72067 24531 ft 465 kts 111°
2026-05-04 18:48 37.84975 13.75792 24052 ft 452 kts 111°
2026-05-04 18:49 37.83819 13.79415 23635 ft 439 kts 111°
2026-05-04 18:49 37.82679 13.82981 23340 ft 426 kts 111°
2026-05-04 18:49 37.81581 13.86411 23096 ft 415 kts 111°
2026-05-04 18:49 37.80515 13.89735 22826 ft 405 kts 111°
2026-05-04 18:50 37.79465 13.93010 22386 ft 402 kts 111°
2026-05-04 18:50 37.78421 13.96259 21845 ft 402 kts 111°
2026-05-04 18:50 37.77359 13.99562 21289 ft 403 kts 111°
2026-05-04 18:50 37.76307 14.02828 20838 ft 399 kts 111°
2026-05-04 18:51 37.75278 14.06015 20619 ft 388 kts 111°
2026-05-04 18:51 37.74272 14.09129 20399 ft 377 kts 111°
2026-05-04 18:51 37.73289 14.12168 20120 ft 368 kts 111°
2026-05-04 18:51 37.72337 14.15112 19741 ft 365 kts 111°
2026-05-04 18:52 37.71381 14.18067 19337 ft 362 kts 111°
2026-05-04 18:52 37.70425 14.21017 18749 ft 366 kts 111°
2026-05-04 18:52 37.69465 14.23978 18157 ft 369 kts 111°
2026-05-04 18:52 37.68481 14.27007 17558 ft 372 kts 111°
2026-05-04 18:53 37.67501 14.30023 16968 ft 374 kts 111°
2026-05-04 18:53 37.66519 14.33038 16342 ft 377 kts 111°
2026-05-04 18:53 37.65519 14.36107 15611 ft 379 kts 111°
2026-05-04 18:53 37.64519 14.39167 14867 ft 371 kts 111°
2026-05-04 18:54 37.63561 14.42098 14111 ft 362 kts 111°
2026-05-04 18:54 37.62615 14.44990 13552 ft 352 kts 111°
2026-05-04 18:54 37.61752 14.47801 13308 ft 336 kts 108°
2026-05-04 18:54 37.61002 14.50508 12970 ft 318 kts 108°
2026-05-04 18:55 37.60301 14.53099 12624 ft 305 kts 107°
2026-05-04 18:55 37.58976 14.57977 12243 ft 286 kts 108°
2026-05-04 18:55 37.58340 14.60304 12065 ft 277 kts 108°
2026-05-04 18:56 37.57503 14.62421 11835 ft 270 kts 130°
2026-05-04 18:56 37.56020 14.63836 11480 ft 265 kts 160°
2026-05-04 18:56 37.54235 14.64224 11017 ft 259 kts 186°
2026-05-04 18:56 37.52473 14.63769 10275 ft 265 kts 199°
2026-05-04 18:57 37.50705 14.63142 9918 ft 261 kts 196°
2026-05-04 18:57 37.48936 14.62678 9594 ft 259 kts 191°
2026-05-04 18:57 37.47122 14.62516 9008 ft 269 kts 172°
2026-05-04 18:57 37.45409 14.63493 8338 ft 281 kts 137°
2026-05-04 18:58 37.44272 14.65516 7656 ft 286 kts 113°
2026-05-04 18:58 37.43661 14.67857 6948 ft 284 kts 100°
2026-05-04 18:58 37.43530 14.70298 6492 ft 271 kts 86°
2026-05-04 18:58 37.43735 14.72592 6027 ft 262 kts 81°
2026-05-04 18:59 37.44005 14.74824 5466 ft 258 kts 82°
2026-05-04 18:59 37.44240 14.77004 5126 ft 246 kts 83°
2026-05-04 18:59 37.44435 14.79133 4649 ft 241 kts 84°
2026-05-04 18:59 37.44605 14.81219 4119 ft 240 kts 84°
2026-05-04 19:00 37.44767 14.83283 3746 ft 235 kts 85°
2026-05-04 19:00 37.44923 14.85306 3571 ft 226 kts 85°
2026-05-04 19:00 37.45077 14.87241 3421 ft 217 kts 85°
2026-05-04 19:00 37.45222 14.89047 3331 ft 202 kts 85°
2026-05-04 19:01 37.45357 14.90732 3152 ft 184 kts 85°
2026-05-04 19:01 37.45482 14.92259 2978 ft 163 kts 85°
2026-05-04 19:01 37.45594 14.93616 2961 ft 151 kts 85°
2026-05-04 19:01 37.45702 14.94912 2986 ft 150 kts 86°
2026-05-04 19:02 37.45811 14.96222 2999 ft 150 kts 86°
2026-05-04 19:02 37.45919 14.97539 2997 ft 150 kts 86°
2026-05-04 19:02 37.46027 14.98827 2937 ft 146 kts 86°
2026-05-04 19:02 37.46132 15.00089 2580 ft 144 kts 86°
2026-05-04 19:03 37.46236 15.01331 2147 ft 145 kts 88°
2026-05-04 19:03 37.46374 15.02618 1888 ft 149 kts 83°
2026-05-04 19:03 37.46519 15.03945 1221 ft 167 kts 85°
2026-05-04 19:03 37.46694 15.05343 836 ft 158 kts 79°
2026-05-04 19:04 37.46909 15.06698 435 ft 156 kts 82°
2026-05-04 19:04 37.47113 15.08099 91 ft 177 kts 64°
2026-05-04 19:04 37.47773 15.09579 686 ft 202 kts 65°
2026-05-04 19:04 37.47923 15.11315 1346 ft 209 kts 114°
2026-05-04 19:05 37.46898 15.12554 1896 ft 218 kts 167°
2026-05-04 19:05 37.45421 15.12303 2467 ft 224 kts 218°
2026-05-04 19:05 37.44613 15.10659 3032 ft 233 kts 265°
2026-05-04 19:05 37.45044 15.08827 3420 ft 224 kts 312°
2026-05-04 19:06 37.46436 15.08038 3604 ft 228 kts
2026-05-04 19:06 37.47864 15.08845 3601 ft 233 kts 50°
2026-05-04 19:06 37.48355 15.10742 3425 ft 232 kts 99°
2026-05-04 19:06 37.47585 15.12416 3086 ft 226 kts 149°
2026-05-04 19:07 37.46103 15.12776 2589 ft 226 kts 198°
2026-05-04 19:07 37.44896 15.11554 1948 ft 234 kts 246°
2026-05-04 19:07 37.44830 15.09527 1176 ft 249 kts 291°
2026-05-04 19:07 37.45543 15.07526 839 ft 239 kts 284°
2026-05-04 19:08 37.45793 15.05705 1702 ft 201 kts 274°
2026-05-04 19:08 37.45858 15.04060 2508 ft 175 kts 271°
2026-05-04 19:08 37.45815 15.02659 2917 ft 149 kts 260°
2026-05-04 19:08 37.45532 15.01454 3011 ft 142 kts 248°
2026-05-04 19:09 37.45118 15.00317 3042 ft 142 kts 246°
2026-05-04 19:09 37.44757 14.99169 3072 ft 142 kts 254°
2026-05-04 19:09 37.44573 14.97949 3104 ft 142 kts 267°
2026-05-04 19:09 37.44645 14.96716 3137 ft 143 kts 281°
2026-05-04 19:10 37.44995 14.95534 3166 ft 145 kts 297°
2026-05-04 19:10 37.45039 14.95436 3169 ft 145 kts 298°